Temp
-9 -9 -9 -9 -9 -8 -8 -8 -8 -8 -7 -7 -7 -7 -7 -7 -7 -7 -8 -8 -8 -8 -8 -8 -8 -8 -8 -7 -7 -7 -7 -7 -7 -7 -7 -7 -7 -8 -9 -9 -7 -7 -7
-9 -9 -9 -9 -9 -9 -8 -8 -8 -8 -7 -7 -7 -7 -7 -7 -7 -8 -8 -8 -8 -8 -8 -8 -8 -8 -8 -8 -8 -8 -8 -8 -8 -8 -8 -7 -8 -8 -10 -8 -8 -7 -7
-9 -9 -9 -9 -9 -9 -9 -8 -8 -8 -8 -8 -7 -7 -7 -7 -7 -8 -8 -9 -9 -9 -9 -8 -8 -8 -8 -8 -8 -8 -8 -9 -9 -8 -8 -8 -8 -9 -10 -8 -8 -8 -8
-9 -9 -9 -9 -9 -9 -9 -9 -9 -9 -8 -8 -8 -8 -8 -8 -7 -7 -7 -8 -9 -9 -9 -9 -9 -9 -8 -8 -8 -8 -8 -8 -9 -9 -9 -9 -8 -11 -9 -8 -8 -8 -8
-9 -9 -10 -10 -10 -10 -10 -10 -10 -10 -9 -9 -8 -8 -8 -8 -8 -8 -8 -7 -8 -9 -9 -9 -9 -9 -9 -9 -9 -8 -8 -8 -8 -8 -9 -9 -9 -10 -9 -9 -9 -8 -8
-9 -10 -10 -10 -10 -10 -10 -10 -10 -10 -9 -10 -9 -9 -9 -8 -8 -9 -8 -8 -8 -9 -9 -9 -9 -9 -9 -9 -9 -9 -9 -9 -9 -9 -9 -9 -9 -9 -9 -9 -8 -9 -8
-10 -10 -10 -10 -10 -10 -10 -10 -10 -10 -10 -10 -10 -9 -9 -9 -9 -9 -9 -8 -8 -9 -9 -9 -9 -9 -9 -9 -10 -9 -9 -9 -9 -9 -9 -9 -9 -9 -9 -8 -8 -8 -9
-10 -10 -10 -10 -10 -10 -10 -10 -10 -10 -10 -11 -10 -10 -10 -9 -9 -9 -9 -9 -8 -8 -8 -9 -9 -9 -9 -9 -9 -9 -10 -9 -9 -9 -9 -9 -9 -9 -9 -9 -9 -9 -9
-10 -10 -10 -10 -10 -10 -10 -10 -10 -11 -11 -11 -11 -10 -11 -10 -9 -9 -10 -10 -9 -8 -9 -8 -9 -9 -9 -9 -9 -9 -10 -10 -9 -9 -9 -9 -10 -10 -10 -9 -10 -10 -10
-10 -10 -10 -10 -10 -10 -9 -9 -9 -10 -10 -11 -10 -11 -11 -11 -11 -10 -9 -10 -9 -9 -8 -8 -9 -9 -9 -9 -9 -9 -10 -10 -10 -10 -10 -10 -10 -10 -10 -10 -10 -10 -10
-11 -10 -10 -10 -10 -9 -9 -9 -9 -9 -10 -11 -11 -10 -10 -10 -10 -10 -9 -9 -9 -9 -9 -9 -9 -9 -9 -9 -9 -9 -10 -10 -10 -10 -10 -10 -10 -10 -10 -10 -10 -10 -10
-10 -10 -10 -10 -9 -9 -9 -9 -9 -8 -8 -10 -11 -10 -9 -10 -10 -9 -9 -9 -9 -9 -9 -10 -10 -10 -10 -10 -10 -10 -10 -10 -10 -10 -10 -10 -10 -10 -10 -10 -10 -10 -10
-11 -11 -10 -10 -9 -9 -9 -10 -9 -8 -8 -11 -10 -10 -9 -10 -9 -9 -9 -9 -9 -9 -9 -9 -9 -10 -10 -10 -10 -10 -10 -10 -10 -10 -10 -10 -10 -10 -10 -10 -10 -10 -10
-11 -11 -10 -10 -10 -9 -9 -10 -10 -11 -11 -11 -11 -10 -9 -9 -10 -9 -9 -9 -9 -9 -9 -9 -9 -9 -10 -10 -10 -10 -10 -10 -10 -11 -11 -11 -11 -11 -11 -11 -10 -10 -11
-11 -11 -10 -10 -9 -9 -9 -9 -9 -9 -10 -11 -10 -8 -9 -10 -10 -10 -9 -9 -9 -9 -9 -10 -10 -10 -10 -10 -10 -11 -11 -11 -11 -11 -11 -11 -10 -11 -11 -11 -11 -11 -11
-10 -10 -10 -9 -9 -9 -8 -9 -9 -9 -9 -9 -7 -8 -8 -9 -10 -9 -9 -10 -10 -10 -10 -10 -10 -10 -10 -9 -10 -10 -11 -11 -11 -11 -11 -11 -11 -12 -12 -12 -11 -11 -12
-10 -10 -10 -9 -9 -8 -8 -9 -9 -9 -9 -9 -9 -10 -10 -10 -10 -10 -10 -10 -10 -10 -10 -10 -10 -10 -10 -10 -10 -10 -10 -10 -11 -12 -12 -11 -12 -12 -12 -12 -12 -12 -12
-11 -10 -10 -9 -9 -9 -9 -9 -9 -9 -9 -9 -8 -9 -9 -10 -10 -10 -10 -10 -10 -10 -11 -11 -10 -11 -10 -10 -10 -10 -11 -11 -12 -12 -13 -12 -12 -12 -12 -12 -12 -11 -12
-11 -11 -10 -10 -10 -10 -9 -9 -9 -9 -9 -9 -9 -9 -9 -9 -9 -9 -10 -10 -10 -10 -10 -11 -11 -11 -11 -11 -10 -11 -11 -12 -12 -12 -12 -13 -13 -13 -13 -12 -12 -12 -12
-11 -11 -11 -10 -10 -10 -10 -10 -10 -10 -10 -9 -10 -10 -10 -10 -9 -9 -11 -10 -10 -10 -11 -11 -11 -11 -11 -12 -12 -12 -12 -12 -12 -13 -12 -12 -13 -13 -13 -13 -13 -13 -13
-12 -11 -11 -11 -11 -11 -11 -11 -11 -11 -10 -11 -11 -10 -11 -10 -10 -11 -10 -10 -11 -11 -12 -12 -12 -12 -12 -12 -13 -13 -13 -13 -12 -13 -13 -14 -14 -14 -14 -14 -14 -15 -15
-13 -12 -12 -12 -11 -11 -11 -11 -11 -11 -12 -12 -12 -12 -12 -12 -11 -11 -11 -11 -11 -12 -13 -13 -13 -13 -13 -12 -12 -12 -13 -13 -14 -14 -14 -15 -15 -15 -15 -15 -16 -16 -15
-13 -13 -13 -13 -13 -12 -12 -12 -12 -13 -13 -12 -12 -12 -13 -13 -12 -12 -13 -13 -13 -13 -14 -14 -13 -13 -13 -13 -13 -14 -15 -15 -15 -15 -16 -16 -16 -16 -16 -16 -16 -16 -16
-14 -14 -14 -13 -13 -13 -13 -13 -13 -13 -13 -14 -13 -13 -13 -13 -14 -13 -14 -15 -14 -14 -15 -14 -14 -14 -14 -15 -15 -15 -16 -16 -16 -16 -16 -16 -17 -17 -17 -17 -17 -17 -17
-15 -15 -14 -14 -14 -14 -14 -14 -14 -15 -15 -15 -14 -14 -14 -14 -14 -15 -15 -16 -16 -16 -16 -15 -15 -16 -16 -16 -16 -16 -16 -16 -17 -17 -17 -17 -17 -17 -17 -17 -17 -17 -18
-16 -16 -15 -15 -15 -15 -16 -16 -15 -15 -16 -16 -16 -15 -16 -16 -16 -16 -16 -16 -16 -16 -16 -16 -16 -17 -17 -17 -17 -17 -17 -17 -17 -17 -17 -17 -17 -17 -18 -18 -18 -18 -18
Height
5856 5851 5847 5843 5841 5839 5836 5837 5839 5838 5837 5834 5833 5832 5831 5830 5830 5830 5831 5833 5835 5837 5837 5837 5838 5837 5838 5838 5838 5839 5838 5839 5839 5839 5839 5840 5839 5841 5841 5843 5845 5846 5846
5855 5851 5848 5846 5843 5841 5841 5840 5838 5837 5835 5832 5830 5829 5828 5828 5828 5828 5829 5830 5833 5834 5834 5834 5834 5834 5834 5834 5833 5834 5834 5833 5834 5834 5833 5833 5832 5833 5835 5839 5841 5842 5842
5853 5851 5847 5845 5845 5843 5841 5840 5838 5836 5833 5830 5828 5827 5826 5825 5824 5824 5826 5827 5829 5830 5831 5830 5830 5830 5829 5829 5830 5829 5829 5829 5829 5830 5829 5826 5824 5827 5832 5835 5837 5838 5838
5851 5849 5847 5845 5843 5841 5839 5837 5835 5833 5830 5829 5827 5826 5824 5822 5820 5820 5821 5822 5824 5825 5827 5828 5826 5826 5825 5825 5825 5825 5825 5825 5826 5826 5825 5824 5824 5825 5829 5830 5833 5834 5834
5848 5845 5842 5840 5838 5836 5834 5833 5830 5828 5827 5827 5825 5823 5821 5820 5818 5815 5816 5817 5818 5819 5821 5821 5821 5821 5820 5819 5820 5821 5821 5821 5822 5821 5821 5822 5823 5825 5826 5826 5827 5827 5828
5843 5839 5836 5836 5836 5833 5831 5829 5825 5823 5821 5822 5823 5820 5816 5816 5813 5814 5813 5813 5814 5815 5816 5815 5816 5817 5816 5815 5815 5815 5816 5816 5816 5817 5817 5818 5820 5820 5820 5821 5821 5821 5821
5836 5834 5833 5832 5831 5830 5827 5824 5821 5818 5813 5813 5815 5817 5815 5812 5809 5808 5808 5811 5811 5811 5812 5811 5811 5810 5810 5810 5810 5810 5811 5811 5811 5812 5812 5813 5813 5813 5814 5814 5814 5814 5814
5829 5828 5828 5824 5822 5821 5820 5819 5817 5815 5810 5805 5805 5807 5810 5811 5808 5807 5804 5805 5807 5806 5806 5807 5807 5804 5803 5805 5804 5805 5805 5806 5807 5807 5807 5806 5806 5806 5806 5806 5806 5807 5806
5821 5819 5819 5817 5815 5815 5812 5802 5803 5806 5807 5804 5797 5795 5798 5803 5805 5803 5801 5800 5800 5801 5801 5802 5802 5800 5798 5799 5799 5799 5799 5800 5800 5801 5801 5800 5801 5801 5800 5800 5800 5800 5800
5814 5813 5812 5809 5805 5803 5800 5800 5802 5800 5800 5800 5798 5789 5786 5789 5795 5797 5797 5795 5795 5795 5796 5796 5796 5795 5793 5793 5794 5794 5794 5795 5795 5795 5796 5796 5796 5796 5795 5795 5794 5795 5794
5804 5807 5804 5799 5796 5791 5787 5785 5785 5785 5788 5788 5790 5788 5782 5780 5782 5787 5790 5788 5787 5788 5788 5789 5790 5789 5788 5788 5788 5788 5788 5790 5790 5789 5789 5789 5789 5790 5790 5790 5790 5789 5787
5792 5794 5792 5789 5782 5779 5772 5766 5758 5748 5760 5769 5778 5782 5778 5775 5773 5778 5781 5781 5780 5778 5779 5781 5781 5781 5782 5782 5782 5780 5780 5782 5783 5783 5783 5782 5781 5781 5782 5782 5783 5783 5781
5784 5783 5779 5776 5772 5768 5762 5750 5730 5708 5721 5747 5766 5772 5769 5768 5767 5769 5771 5771 5768 5769 5769 5771 5772 5773 5773 5773 5774 5775 5774 5774 5774 5775 5776 5776 5775 5775 5774 5774 5773 5773 5773
5772 5770 5768 5764 5759 5758 5754 5751 5747 5739 5736 5747 5755 5761 5760 5759 5759 5760 5760 5760 5761 5760 5760 5761 5762 5764 5763 5764 5764 5765 5766 5767 5768 5767 5767 5767 5767 5766 5765 5765 5763 5762 5762
5758 5756 5756 5754 5750 5748 5744 5743 5743 5744 5742 5742 5747 5749 5749 5749 5752 5753 5752 5753 5751 5753 5752 5752 5753 5754 5757 5756 5756 5757 5757 5758 5758 5758 5758 5758 5758 5757 5755 5754 5752 5752 5752
5745 5744 5743 5743 5742 5739 5736 5737 5738 5732 5725 5728 5732 5724 5722 5738 5741 5741 5738 5742 5741 5742 5744 5744 5744 5745 5745 5746 5746 5746 5747 5747 5747 5748 5747 5746 5745 5745 5745 5745 5743 5741 5740
5734 5734 5733 5730 5730 5729 5728 5727 5728 5730 5727 5726 5730 5730 5723 5726 5727 5728 5731 5732 5732 5735 5734 5735 5735 5735 5736 5734 5734 5735 5736 5735 5736 5736 5735 5735 5734 5732 5730 5730 5730 5730 5729
5724 5723 5724 5721 5719 5718 5716 5716 5715 5717 5719 5718 5717 5717 5716 5720 5720 5722 5724 5724 5724 5725 5725 5724 5724 5724 5725 5726 5725 5725 5724 5722 5723 5725 5725 5723 5721 5719 5717 5716 5715 5714 5715
5716 5714 5713 5712 5712 5710 5709 5708 5707 5706 5707 5709 5710 5710 5710 5711 5712 5711 5711 5713 5715 5714 5714 5713 5713 5714 5715 5717 5716 5716 5714 5714 5715 5715 5714 5713 5711 5708 5705 5704 5702 5701 5700
5707 5707 5707 5705 5703 5703 5702 5700 5699 5699 5698 5698 5700 5700 5701 5703 5702 5705 5698 5701 5705 5704 5702 5703 5704 5704 5706 5707 5706 5706 5706 5706 5705 5704 5703 5700 5697 5695 5693 5691 5689 5687 5684
5700 5698 5698 5698 5697 5695 5693 5691 5691 5690 5691 5690 5691 5693 5694 5694 5695 5693 5695 5696 5696 5695 5694 5694 5696 5697 5697 5697 5697 5697 5696 5695 5692 5691 5688 5686 5683 5681 5678 5677 5675 5673 5670
5689 5689 5689 5689 5688 5686 5685 5684 5683 5683 5681 5682 5682 5683 5684 5685 5686 5687 5687 5688 5687 5686 5688 5689 5689 5688 5689 5687 5686 5684 5682 5681 5678 5676 5675 5673 5671 5670 5668 5665 5662 5659 5656
5682 5681 5679 5680 5679 5678 5677 5676 5675 5675 5674 5676 5675 5675 5676 5677 5677 5677 5678 5680 5680 5678 5678 5677 5678 5677 5675 5673 5671 5670 5669 5668 5666 5665 5664 5662 5659 5656 5653 5650 5647 5644 5641
5672 5672 5672 5672 5671 5669 5669 5669 5669 5669 5668 5667 5666 5666 5665 5667 5669 5670 5671 5670 5669 5668 5669 5669 5667 5666 5664 5664 5661 5659 5659 5658 5656 5654 5652 5650 5647 5644 5641 5638 5634 5631 5627
5663 5662 5662 5662 5662 5662 5663 5662 5659 5659 5661 5662 5661 5661 5661 5661 5661 5659 5659 5659 5658 5658 5658 5658 5656 5655 5652 5652 5650 5649 5647 5645 5643 5641 5640 5637 5634 5631 5628 5626 5621 5617 5613
5655 5654 5654 5654 5654 5653 5654 5653 5653 5654 5654 5654 5653 5653 5655 5654 5652 5652 5652 5651 5648 5648 5647 5646 5645 5645 5642 5641 5639 5638 5635 5634 5633 5631 5628 5624 5621 5618 5615 5611 5608 5603 5599
Wind_Speed
21 21 14 19 13 9 6 6 8 8 6 5 6 6 6 5 8 13 14 17 17 16 16 17 16 17 20 22 24 25 25 25 25 27 28 29 25 30 24 13 14 13 12
16 17 13 14 16 13 12 11 10 10 9 8 9 9 6 6 7 5 7 10 13 15 16 15 15 15 16 17 18 19 20 20 19 21 20 27 31 29 22 13 12 11 11
13 13 16 14 19 14 16 15 13 15 14 11 11 12 12 7 7 6 7 9 13 17 17 14 11 11 13 14 15 14 13 14 15 14 20 22 29 22 9 12 12 12 11
13 12 11 12 14 16 12 14 16 19 19 15 14 11 11 7 6 7 9 9 9 11 13 15 14 15 14 13 14 15 15 15 16 18 17 12 15 9 11 13 14 16 17
14 15 12 11 12 13 14 16 17 19 20 17 15 11 9 8 7 6 9 13 13 12 14 13 14 15 16 15 15 17 17 17 18 17 16 15 13 12 16 18 19 21 21
18 20 19 20 20 21 20 18 21 19 17 19 19 15 8 12 8 7 8 9 11 10 11 12 14 16 16 15 16 17 17 16 18 19 19 19 20 21 23 24 26 26 27
25 25 27 28 31 32 31 28 23 19 11 14 16 18 14 12 8 7 6 8 8 7 10 13 15 17 15 15 17 17 18 18 18 18 20 22 23 25 26 28 28 28 26
31 32 32 33 33 35 34 37 33 26 18 17 17 17 21 17 13 12 8 10 11 11 12 15 14 13 14 17 17 17 16 17 18 18 19 20 20 21 21 22 23 23 22
35 36 37 39 40 38 46 45 34 31 28 25 19 17 18 22 21 16 14 13 14 14 13 16 15 13 13 13 15 15 16 17 16 16 17 17 19 21 21 20 22 23 23
36 39 40 40 41 43 45 44 41 36 41 34 30 18 15 16 20 23 22 20 19 19 19 20 18 16 15 15 15 15 15 16 17 16 17 17 18 19 18 19 20 20 20
39 39 39 42 44 45 48 50 50 50 48 39 33 30 19 19 20 23 25 24 23 24 24 23 21 20 17 19 18 16 15 15 15 15 17 17 18 21 21 22 21 21 22
46 44 42 42 46 45 47 54 60 71 63 48 33 37 28 24 21 21 21 23 25 27 27 25 25 21 20 20 20 18 18 18 18 19 20 20 19 20 20 21 23 24 25
49 49 46 44 43 42 44 49 58 25 41 49 43 39 31 27 22 24 27 24 30 30 30 28 26 25 25 26 25 24 23 23 23 23 23 23 24 24 25 24 25 26 28
52 49 42 38 42 38 38 37 29 7 28 36 31 26 27 28 26 29 32 30 19 24 17 30 35 36 32 33 30 27 27 25 24 25 25 26 27 28 29 30 30 28 31
46 38 35 34 34 34 35 34 29 23 25 23 24 28 29 30 31 32 30 35 27 21 24 26 18 19 28 36 40 31 25 24 27 27 28 30 32 31 32 33 35 34 33
36 33 32 31 31 32 34 33 31 34 35 22 34 37 33 36 38 35 40 26 22 26 22 27 31 31 31 35 37 32 31 29 30 31 32 34 33 30 30 30 33 35 37
33 32 31 28 29 27 31 34 34 29 28 23 30 30 35 23 27 29 31 29 25 28 30 32 35 36 31 30 35 37 37 35 36 35 34 36 37 35 32 33 31 32 35
33 33 30 27 29 28 30 32 34 32 27 25 26 31 29 31 32 33 32 31 33 35 36 35 28 27 32 31 41 40 40 44 36 33 31 32 32 34 34 34 36 37 38
24 24 24 23 25 25 26 29 30 32 29 28 29 30 32 32 26 31 28 29 36 34 35 31 32 29 25 36 48 41 28 24 24 28 33 34 34 35 36 38 39 42 43
21 20 22 23 24 26 23 24 25 24 26 27 27 24 22 18 31 33 20 15 23 24 21 20 20 20 25 28 28 27 29 29 29 33 33 34 36 37 39 42 44 46 48
21 21 22 21 20 20 22 23 23 20 20 23 24 24 22 22 33 30 25 23 22 25 24 23 23 22 25 29 30 32 31 32 32 36 38 39 40 42 44 46 46 47 47
20 19 20 21 21 21 23 22 22 22 20 20 17 15 21 25 27 25 25 25 22 22 19 21 23 27 30 33 34 38 37 38 37 39 41 41 43 44 45 45 46 46 47
20 17 16 14 15 16 19 17 17 21 23 22 21 20 19 24 24 24 22 20 18 28 28 27 28 30 33 35 36 37 37 38 39 40 42 42 41 42 43 43 42 42 43
18 16 15 14 16 19 19 18 18 18 19 20 22 20 21 23 28 28 24 18 22 28 33 34 33 35 35 37 35 34 34 35 36 37 38 36 36 37 38 39 43 46 48
17 18 18 17 16 18 22 23 22 23 21 20 19 24 28 26 24 24 25 25 29 34 34 33 32 33 31 34 35 34 33 33 33 34 34 34 37 40 44 46 47 48 44
13 12 12 12 13 14 16 17 20 22 22 23 24 28 25 24 27 28 31 34 34 33 32 31 29 29 30 31 31 32 32 31 33 35 38 40 43 45 44 41 39 39 42
Wind_Direction
339 347 346 10 7 357 342 310 291 295 298 315 313 304 304 293 275 257 245 249 255 254 260 263 266 266 267 267 266 266 269 269 269 266 265 262 264 265 233 240 261 257 259
339 356 311 331 358 350 322 308 298 293 294 310 304 295 284 269 249 250 246 247 255 257 257 259 263 262 265 264 265 268 272 269 271 275 277 264 270 248 222 241 251 260 272
323 341 356 341 318 333 316 306 302 300 299 308 310 304 295 272 266 243 243 249 253 254 254 255 259 264 263 258 255 253 260 266 271 268 282 284 236 209 204 241 257 269 281
302 319 339 340 351 343 338 315 306 297 294 299 298 299 286 284 270 258 247 243 249 255 251 252 262 261 260 263 260 258 259 262 263 269 280 302 247 203 253 261 266 273 280
290 301 307 311 311 314 316 319 313 317 289 288 292 293 284 273 271 244 256 250 240 250 262 266 264 261 265 264 261 260 258 257 264 269 264 266 262 261 264 269 274 275 282
277 282 293 294 297 298 300 302 307 301 312 272 285 285 276 276 264 265 254 253 247 249 260 258 265 265 260 261 260 257 259 263 264 268 269 267 263 263 268 273 276 282 283
282 286 290 293 297 297 291 288 285 290 281 254 275 281 285 276 258 259 259 257 248 251 259 258 260 260 264 260 256 259 258 258 258 259 262 264 267 270 274 276 278 278 279
282 290 292 294 294 293 285 281 279 276 266 243 250 273 283 279 269 261 245 247 255 252 263 268 262 259 257 258 259 259 262 266 266 267 268 270 270 269 269 271 275 275 277
281 286 290 293 296 296 294 301 254 261 271 260 242 247 265 271 266 265 266 257 256 257 259 271 270 268 263 259 257 257 261 266 267 275 276 275 273 273 273 273 272 269 269
280 289 296 299 300 301 298 300 296 284 277 265 261 247 246 253 266 259 256 256 256 258 261 264 269 270 266 260 255 250 251 259 271 275 278 279 278 276 274 272 271 274 276
285 291 296 301 302 300 297 294 291 284 277 251 257 256 242 248 251 259 254 251 253 256 257 261 261 262 261 264 259 258 259 264 265 268 276 281 282 282 283 281 279 277 276
292 297 301 302 303 300 297 295 291 279 255 241 246 255 247 245 246 253 255 257 253 254 258 258 263 258 259 258 258 259 260 259 259 262 266 267 268 274 278 281 284 283 279
290 295 300 301 297 299 300 307 321 278 228 225 235 245 251 250 253 251 253 256 258 254 258 255 255 256 253 251 250 260 258 259 260 263 266 269 272 273 273 272 272 274 277
290 296 297 293 292 295 297 301 319 176 171 201 221 242 249 252 254 254 271 271 280 252 275 266 258 266 240 242 249 256 257 258 258 264 268 271 274 275 275 273 269 265 268
294 292 290 288 288 288 287 293 297 284 238 222 236 245 246 245 252 251 259 274 258 261 271 257 268 258 267 262 260 256 254 258 263 261 264 270 273 272 272 274 276 278 274
293 291 292 287 285 281 280 282 283 286 270 245 233 241 234 250 250 263 247 270 256 252 252 273 285 282 276 281 257 248 253 260 264 268 272 276 276 273 270 268 269 272 275
295 297 297 290 289 280 275 276 279 277 280 279 280 279 286 272 275 267 269 267 257 275 273 275 283 279 272 256 241 249 263 261 262 264 266 273 275 275 273 271 267 263 262
297 297 295 294 289 281 279 277 278 278 276 270 267 276 281 278 282 283 284 279 276 272 281 277 271 266 256 256 246 271 263 261 261 267 268 271 272 269 268 270 272 273 270
287 288 288 285 281 280 278 281 280 281 280 268 259 258 265 275 276 276 268 285 281 275 275 269 255 267 257 248 256 269 271 270 273 267 266 267 268 271 271 270 270 271 271
287 286 285 284 280 279 279 277 282 280 275 264 254 249 267 258 260 265 292 295 289 294 286 288 277 264 260 262 259 262 272 272 272 268 269 266 265 266 267 268 268 267 268
289 284 283 285 289 283 281 278 285 291 285 277 261 278 274 244 249 283 277 272 275 274 274 270 269 268 263 260 267 276 275 279 272 261 261 262 265 266 266 268 271 272 275
285 287 291 295 296 297 294 292 292 293 291 285 286 290 277 273 269 269 268 269 266 264 253 258 256 256 264 268 274 278 271 266 262 261 265 268 272 274 276 278 279 281 283
282 282 284 288 281 281 289 293 286 273 278 276 275 267 292 275 260 260 257 245 228 236 241 252 267 271 268 265 268 269 267 267 270 272 277 280 282 283 284 285 285 285 284
271 271 267 266 259 266 265 261 264 260 266 268 273 271 270 250 235 235 247 241 253 262 274 275 273 269 268 269 268 266 271 277 278 279 280 281 282 283 283 283 284 284 284
273 274 274 269 256 247 248 252 255 260 256 259 255 240 243 253 266 269 283 272 261 257 264 267 268 268 270 270 273 276 277 278 279 280 281 282 282 282 283 282 284 285 287
275 273 265 259 255 254 252 253 257 258 264 260 259 251 256 250 248 258 260 264 270 270 269 268 269 268 269 270 277 278 279 280 282 284 284 284 284 285 287 289 289 290 292